Time,TemperatureF,DewpointF,PressureIn,WindDirection,WindDirectionDegrees,WindSpeedMPH,WindSpeedGustMPH,Humidity,HourlyPrecipIn,Conditions,Clouds,dailyrainin,SoftwareType,DateUTC
2013-02-09 00:00:00,34.2,28.9,30.33,WNW,293,6.0,6.0,81,0.00,,,0.07,VWS V14.01,2013-02-09 05:00:00,
2013-02-09 00:05:00,34.1,28.9,30.33,WNW,287,6.0,9.0,81,0.00,,,0.00,VWS V14.01,2013-02-09 05:05:00,
2013-02-09 00:10:00,34.1,28.9,30.34,NW,324,4.5,6.0,81,0.00,,,0.00,VWS V14.01,2013-02-09 05:10:00,
2013-02-09 00:15:00,34.1,28.9,30.34,NW,307,6.0,6.0,81,0.00,,,0.00,VWS V14.01,2013-02-09 05:15:00,
2013-02-09 00:20:00,34.1,28.9,30.34,NW,318,3.0,4.5,81,0.00,,,0.00,VWS V14.01,2013-02-09 05:20:00,
2013-02-09 00:25:00,34.1,28.9,30.34,NW,319,4.5,7.5,81,0.00,,,0.00,VWS V14.01,2013-02-09 05:25:00,
2013-02-09 00:30:00,34.0,28.8,30.34,WNW,298,4.5,6.0,81,0.00,,,0.00,VWS V14.01,2013-02-09 05:30:00,
2013-02-09 00:35:00,34.0,28.8,30.34,NW,310,3.0,3.0,81,0.00,,,0.00,VWS V14.01,2013-02-09 05:35:00,
2013-02-09 00:40:00,34.0,28.8,30.34,NW,316,7.5,7.5,81,0.00,,,0.00,VWS V14.01,2013-02-09 05:40:00,
2013-02-09 00:45:00,33.9,28.6,30.35,WNW,292,3.0,6.0,81,0.00,,,0.00,VWS V14.01,2013-02-09 05:45:00,
2013-02-09 00:50:00,33.9,28.3,30.35,NW,307,4.5,6.0,80,0.00,,,0.00,VWS V14.01,2013-02-09 05:50:00,
2013-02-09 00:55:00,33.8,28.2,30.35,NW,307,4.5,7.5,80,0.00,,,0.00,VWS V14.01,2013-02-09 05:55:00,
2013-02-09 01:00:00,33.8,28.2,30.35,NW,316,4.5,6.0,80,0.00,,,0.00,VWS V14.01,2013-02-09 06:00:00,
2013-02-09 01:05:00,33.7,28.1,30.35,NW,318,3.0,4.5,80,0.00,,,0.00,VWS V14.01,2013-02-09 06:05:00,
2013-02-09 01:10:00,33.7,27.8,30.35,NW,318,4.5,4.5,79,0.00,,,0.00,VWS V14.01,2013-02-09 06:10:00,
2013-02-09 01:15:00,33.6,27.4,30.35,NW,319,4.5,7.5,78,0.00,,,0.00,VWS V14.01,2013-02-09 06:15:00,
2013-02-09 01:20:00,33.6,27.4,30.35,NW,304,7.5,7.5,78,0.00,,,0.00,VWS V14.01,2013-02-09 06:20:00,
2013-02-09 01:25:00,33.5,27.3,30.35,NNW,334,4.5,4.5,78,0.00,,,0.00,VWS V14.01,2013-02-09 06:25:00,
2013-02-09 01:30:00,33.4,27.2,30.35,North,352,3.0,4.5,78,0.00,,,0.00,VWS V14.01,2013-02-09 06:30:00,
2013-02-09 01:35:00,33.3,27.1,30.35,NNW,342,4.5,6.0,78,0.00,,,0.00,VWS V14.01,2013-02-09 06:35:00,
2013-02-09 01:40:00,33.3,27.4,30.35,North,356,6.0,6.0,79,0.00,,,0.00,VWS V14.01,2013-02-09 06:40:00,
2013-02-09 01:45:00,33.2,27.3,30.35,NNW,347,4.5,4.5,79,0.00,,,0.00,VWS V14.01,2013-02-09 06:45:00,
2013-02-09 01:50:00,33.1,26.9,30.35,NW,318,6.0,7.5,78,0.00,,,0.00,VWS V14.01,2013-02-09 06:50:00,
2013-02-09 01:55:00,33.0,27.1,30.35,North,4,4.5,4.5,79,0.00,,,0.00,VWS V14.01,2013-02-09 06:55:00,
2013-02-09 02:00:00,33.0,26.8,30.35,North,7,4.5,4.5,78,0.00,,,0.00,VWS V14.01,2013-02-09 07:00:00,
2013-02-09 02:05:00,33.0,27.1,30.35,North,359,1.5,4.5,79,0.00,,,0.00,VWS V14.01,2013-02-09 07:05:00,
2013-02-09 02:10:00,32.9,26.7,30.35,NNW,346,3.0,4.5,78,0.00,,,0.00,VWS V14.01,2013-02-09 07:10:00,
2013-02-09 02:15:00,32.8,26.9,30.35,North,351,4.5,4.5,79,0.00,,,0.00,VWS V14.01,2013-02-09 07:15:00,
2013-02-09 02:19:00,32.8,26.9,30.35,NNW,330,3.0,4.5,79,0.00,,,0.00,VWS V14.01,2013-02-09 07:19:00,
2013-02-09 02:24:00,32.7,26.8,30.36,NNW,332,3.0,4.5,79,0.00,,,0.00,VWS V14.01,2013-02-09 07:24:00,
2013-02-09 02:29:00,32.6,26.7,30.36,NNW,327,4.5,4.5,79,0.00,,,0.00,VWS V14.01,2013-02-09 07:29:00,
2013-02-09 02:34:00,32.6,27.1,30.36,NNW,341,3.0,4.5,80,0.00,,,0.00,VWS V14.01,2013-02-09 07:34:00,
2013-02-09 02:39:00,32.6,26.7,30.36,NNW,330,3.0,3.0,79,0.00,,,0.00,VWS V14.01,2013-02-09 07:39:00,
2013-02-09 02:44:00,32.5,27.0,30.36,North,11,3.0,3.0,80,0.00,,,0.00,VWS V14.01,2013-02-09 07:44:00,
2013-02-09 02:49:00,32.4,26.5,30.36,NW,315,1.5,4.5,79,0.00,,,0.00,VWS V14.01,2013-02-09 07:49:00,
2013-02-09 02:54:00,32.3,26.8,30.37,NNE,20,3.0,4.5,80,0.00,,,0.00,VWS V14.01,2013-02-09 07:54:00,
2013-02-09 02:59:00,32.2,26.7,30.37,North,7,3.0,4.5,80,0.00,,,0.00,VWS V14.01,2013-02-09 07:59:00,
2013-02-09 03:04:00,32.2,27.0,30.37,NNW,333,3.0,3.0,81,0.00,,,0.00,VWS V14.01,2013-02-09 08:04:00,
2013-02-09 03:09:00,32.1,26.9,30.38,NNW,344,4.5,4.5,81,0.00,,,0.00,VWS V14.01,2013-02-09 08:09:00,
2013-02-09 03:14:00,32.0,26.8,30.38,North,357,4.5,6.0,81,0.00,,,0.00,VWS V14.01,2013-02-09 08:14:00,
2013-02-09 03:19:00,32.0,26.8,30.38,North,354,1.5,4.5,81,0.00,,,0.00,VWS V14.01,2013-02-09 08:19:00,
2013-02-09 03:24:00,31.9,26.7,30.38,NNW,337,3.0,4.5,81,0.00,,,0.00,VWS V14.01,2013-02-09 08:24:00,
2013-02-09 03:29:00,31.8,26.6,30.38,North,9,1.5,4.5,81,0.00,,,0.00,VWS V14.01,2013-02-09 08:29:00,
2013-02-09 03:34:00,31.7,26.8,30.37,North,1,3.0,3.0,82,0.00,,,0.00,VWS V14.01,2013-02-09 08:34:00,
2013-02-09 03:39:00,31.5,26.6,30.38,North,360,1.5,1.5,82,0.00,,,0.00,VWS V14.01,2013-02-09 08:39:00,
2013-02-09 03:44:00,31.4,26.5,30.38,NNW,335,1.5,1.5,82,0.00,,,0.00,VWS V14.01,2013-02-09 08:44:00,
2013-02-09 03:49:00,31.3,26.4,30.38,NNW,335,1.5,1.5,82,0.00,,,0.00,VWS V14.01,2013-02-09 08:49:00,
2013-02-09 03:54:00,31.1,26.5,30.38,North,10,3.0,4.5,83,0.00,,,0.00,VWS V14.01,2013-02-09 08:54:00,
2013-02-09 03:59:00,31.0,26.4,30.38,NNW,327,1.5,1.5,83,0.00,,,0.00,VWS V14.01,2013-02-09 08:59:00,
2013-02-09 04:04:00,30.8,26.2,30.37,NNE,25,1.5,1.5,83,0.00,,,0.00,VWS V14.01,2013-02-09 09:04:00,
2013-02-09 04:09:00,30.7,26.5,30.37,NNE,25,1.5,1.5,84,0.00,,,0.00,VWS V14.01,2013-02-09 09:09:00,
2013-02-09 04:16:00,30.5,26.2,30.38,NNE,25,1.5,1.5,84,0.00,,,0.00,VWS V14.01,2013-02-09 09:16:00,
2013-02-09 04:21:00,30.3,26.4,30.38,NNE,25,1.5,1.5,85,0.00,,,0.00,VWS V14.01,2013-02-09 09:21:00,
2013-02-09 04:26:00,30.2,26.3,30.38,NNE,25,1.5,1.5,85,0.00,,,0.00,VWS V14.01,2013-02-09 09:26:00,
2013-02-09 04:31:00,30.1,26.2,30.38,NNE,24,1.5,1.5,85,0.00,,,0.00,VWS V14.01,2013-02-09 09:31:00,
2013-02-09 04:36:00,30.1,26.2,30.38,NNE,24,1.5,1.5,85,0.00,,,0.00,VWS V14.01,2013-02-09 09:36:00,
2013-02-09 04:41:00,30.1,26.5,30.37,NNE,23,1.5,1.5,86,0.00,,,0.00,VWS V14.01,2013-02-09 09:41:00,
2013-02-09 04:46:00,30.2,26.3,30.37,NNE,31,1.5,1.5,85,0.00,,,0.00,VWS V14.01,2013-02-09 09:46:00,
2013-02-09 04:51:00,30.1,26.2,30.37,NNE,30,1.5,1.5,85,0.00,,,0.00,VWS V14.01,2013-02-09 09:51:00,
2013-02-09 04:56:00,30.0,26.1,30.37,NNE,31,1.5,1.5,85,0.00,,,0.00,VWS V14.01,2013-02-09 09:56:00,
2013-02-09 05:01:00,29.8,25.9,30.37,NNE,31,1.5,1.5,85,0.00,,,0.00,VWS V14.01,2013-02-09 10:01:00,
2013-02-09 05:06:00,29.7,25.8,30.37,NNE,31,1.5,1.5,85,0.00,,,0.00,VWS V14.01,2013-02-09 10:06:00,
2013-02-09 05:11:00,29.7,25.2,30.38,NE,38,1.5,3.0,83,0.00,,,0.00,VWS V14.01,2013-02-09 10:11:00,
2013-02-09 05:16:00,30.0,25.1,30.37,ENE,65,1.5,1.5,82,0.00,,,0.00,VWS V14.01,2013-02-09 10:16:00,
2013-02-09 05:24:00,30.2,25.0,30.38,ENE,65,3.0,3.0,81,0.00,,,0.00,VWS V14.01,2013-02-09 10:24:00,
2013-02-09 05:29:00,30.2,25.0,30.38,ENE,65,1.5,1.5,81,0.00,,,0.00,VWS V14.01,2013-02-09 10:29:00,
2013-02-09 05:34:00,30.2,24.7,30.39,ENE,65,1.5,1.5,80,0.00,,,0.00,VWS V14.01,2013-02-09 10:34:00,
2013-02-09 05:39:00,30.1,24.9,30.39,ENE,74,1.5,1.5,81,0.00,,,0.00,VWS V14.01,2013-02-09 10:39:00,
2013-02-09 05:44:00,30.0,24.8,30.39,ENE,74,1.5,1.5,81,0.00,,,0.00,VWS V14.01,2013-02-09 10:44:00,
2013-02-09 05:49:00,29.8,24.6,30.39,ENE,74,1.5,1.5,81,0.00,,,0.00,VWS V14.01,2013-02-09 10:49:00,
2013-02-09 05:54:00,29.8,24.6,30.39,East,86,3.0,7.5,81,0.00,,,0.00,VWS V14.01,2013-02-09 10:54:00,
2013-02-09 05:59:00,30.1,24.6,30.39,ENE,74,1.5,1.5,80,0.00,,,0.00,VWS V14.01,2013-02-09 10:59:00,
2013-02-09 06:04:00,30.2,24.7,30.39,East,93,4.5,6.0,80,0.00,,,0.00,VWS V14.01,2013-02-09 11:04:00,
2013-02-09 06:09:00,30.2,24.7,30.39,East,89,6.0,6.0,80,0.00,,,0.00,VWS V14.01,2013-02-09 11:09:00,
2013-02-09 06:14:00,30.3,24.2,30.39,East,96,3.0,3.0,78,0.00,,,0.00,VWS V14.01,2013-02-09 11:14:00,
2013-02-09 06:19:00,30.1,24.0,30.39,East,90,1.5,1.5,78,0.00,,,0.00,VWS V14.01,2013-02-09 11:19:00,
2013-02-09 06:24:00,29.8,24.0,30.39,East,90,1.5,3.0,79,0.00,,,0.00,VWS V14.01,2013-02-09 11:24:00,
2013-02-09 06:29:00,29.5,24.0,30.39,East,89,1.5,1.5,80,0.00,,,0.00,VWS V14.01,2013-02-09 11:29:00,
2013-02-09 06:34:00,29.2,23.8,30.39,East,90,1.5,1.5,80,0.00,,,0.00,VWS V14.01,2013-02-09 11:34:00,
2013-02-09 06:39:00,28.9,23.8,30.39,East,89,1.5,1.5,81,0.00,,,0.00,VWS V14.01,2013-02-09 11:39:00,
2013-02-09 06:43:00,28.5,23.4,30.40,East,90,1.5,1.5,81,0.00,,,0.00,VWS V14.01,2013-02-09 11:43:00,
2013-02-09 06:48:00,28.0,22.9,30.40,East,90,1.5,1.5,81,0.00,,,0.00,VWS V14.01,2013-02-09 11:48:00,
2013-02-09 06:53:00,27.5,23.0,30.41,East,89,1.5,1.5,83,0.00,,,0.00,VWS V14.01,2013-02-09 11:53:00,
2013-02-09 06:58:00,27.2,23.0,30.41,East,90,1.5,1.5,84,0.00,,,0.00,VWS V14.01,2013-02-09 11:58:00,
2013-02-09 07:03:00,26.8,22.6,30.41,East,90,1.5,1.5,84,0.00,,,0.00,VWS V14.01,2013-02-09 12:03:00,
2013-02-09 07:08:00,26.8,22.9,30.41,East,90,1.5,1.5,85,0.00,,,0.00,VWS V14.01,2013-02-09 12:08:00,
2013-02-09 07:13:00,26.9,23.0,30.42,East,90,1.5,1.5,85,0.00,,,0.00,VWS V14.01,2013-02-09 12:13:00,
2013-02-09 07:18:00,26.8,22.9,30.41,East,96,1.5,1.5,85,0.00,,,0.00,VWS V14.01,2013-02-09 12:18:00,
2013-02-09 07:23:00,27.1,23.2,30.41,East,93,3.0,4.5,85,0.00,,,0.00,VWS V14.01,2013-02-09 12:23:00,
2013-02-09 07:28:00,27.2,23.0,30.41,East,94,1.5,1.5,84,0.00,,,0.00,VWS V14.01,2013-02-09 12:28:00,
2013-02-09 07:33:00,26.6,22.4,30.42,East,94,1.5,1.5,84,0.00,,,0.00,VWS V14.01,2013-02-09 12:33:00,
2013-02-09 07:38:00,26.1,22.2,30.42,East,93,1.5,1.5,85,0.00,,,0.00,VWS V14.01,2013-02-09 12:38:00,
2013-02-09 07:43:00,26.2,22.6,30.42,East,93,1.5,1.5,86,0.00,,,0.00,VWS V14.01,2013-02-09 12:43:00,
2013-02-09 07:48:00,26.3,22.7,30.42,East,93,1.5,1.5,86,0.00,,,0.00,VWS V14.01,2013-02-09 12:48:00,
2013-02-09 07:53:00,26.2,22.9,30.42,East,94,1.5,1.5,87,0.00,,,0.00,VWS V14.01,2013-02-09 12:53:00,
2013-02-09 07:58:00,26.3,23.0,30.42,East,94,1.5,1.5,87,0.00,,,0.00,VWS V14.01,2013-02-09 12:58:00,
2013-02-09 08:03:00,26.5,22.9,30.42,ENE,67,1.5,1.5,86,0.00,,,0.00,VWS V14.01,2013-02-09 13:03:00,
2013-02-09 08:08:00,26.5,22.9,30.42,ENE,72,3.0,4.5,86,0.00,,,0.00,VWS V14.01,2013-02-09 13:08:00,
2013-02-09 08:13:00,27.0,23.4,30.42,East,94,1.5,4.5,86,0.00,,,0.00,VWS V14.01,2013-02-09 13:13:00,
2013-02-09 08:18:00,27.4,23.5,30.43,ENE,76,7.5,7.5,85,0.00,,,0.00,VWS V14.01,2013-02-09 13:18:00,
2013-02-09 08:23:00,27.9,23.7,30.43,ENE,58,6.0,6.0,84,0.00,,,0.00,VWS V14.01,2013-02-09 13:23:00,
2013-02-09 08:28:00,28.1,23.6,30.43,ENE,61,3.0,4.5,83,0.00,,,0.00,VWS V14.01,2013-02-09 13:28:00,
2013-02-09 08:33:00,28.3,23.8,30.44,ENE,77,3.0,4.5,83,0.00,,,0.00,VWS V14.01,2013-02-09 13:33:00,
2013-02-09 08:38:00,28.6,23.8,30.44,NE,53,9.0,10.5,82,0.00,,,0.00,VWS V14.01,2013-02-09 13:38:00,
2013-02-09 08:43:00,28.8,23.7,30.44,East,93,7.5,10.5,81,0.00,,,0.00,VWS V14.01,2013-02-09 13:43:00,
2013-02-09 08:48:00,29.0,23.6,30.44,ENE,70,7.5,10.5,80,0.00,,,0.00,VWS V14.01,2013-02-09 13:48:00,
2013-02-09 08:53:00,29.2,23.4,30.44,ESE,108,3.0,6.0,79,0.00,,,0.00,VWS V14.01,2013-02-09 13:53:00,
2013-02-09 08:58:00,29.4,23.6,30.44,ENE,63,4.5,7.5,79,0.00,,,0.00,VWS V14.01,2013-02-09 13:58:00,
2013-02-09 09:03:00,29.7,23.9,30.44,ENE,77,7.5,7.5,79,0.00,,,0.00,VWS V14.01,2013-02-09 14:03:00,
2013-02-09 09:08:00,29.8,23.7,30.44,ENE,76,4.5,6.0,78,0.00,,,0.00,VWS V14.01,2013-02-09 14:08:00,
2013-02-09 09:13:00,29.9,23.5,30.44,East,91,7.5,9.0,77,0.00,,,0.00,VWS V14.01,2013-02-09 14:13:00,
2013-02-09 09:18:00,29.9,23.5,30.44,ESE,103,10.5,13.5,77,0.00,,,0.00,VWS V14.01,2013-02-09 14:18:00,
2013-02-09 09:23:00,30.0,23.2,30.44,East,89,9.0,13.5,76,0.00,,,0.00,VWS V14.01,2013-02-09 14:23:00,
2013-02-09 09:28:00,30.2,23.4,30.44,East,79,7.5,13.5,76,0.00,,,0.00,VWS V14.01,2013-02-09 14:28:00,
2013-02-09 09:33:00,30.3,23.2,30.44,East,79,13.5,13.5,75,0.00,,,0.00,VWS V14.01,2013-02-09 14:33:00,
2013-02-09 09:38:00,30.4,23.3,30.44,ENE,66,10.5,10.5,75,0.00,,,0.00,VWS V14.01,2013-02-09 14:38:00,
2013-02-09 09:43:00,30.7,23.9,30.43,East,92,6.0,6.0,76,0.00,,,0.00,VWS V14.01,2013-02-09 14:43:00,
2013-02-09 09:48:00,30.9,24.1,30.43,ENE,74,9.0,12.0,76,0.00,,,0.00,VWS V14.01,2013-02-09 14:48:00,
2013-02-09 09:53:00,31.1,24.0,30.43,ENE,63,9.0,10.5,75,0.00,,,0.00,VWS V14.01,2013-02-09 14:53:00,
2013-02-09 09:58:00,31.3,23.8,30.43,East,96,13.5,13.5,74,0.00,,,0.00,VWS V14.01,2013-02-09 14:58:00,
2013-02-09 10:03:00,31.5,24.0,30.43,NE,41,10.5,10.5,74,0.00,,,0.00,VWS V14.01,2013-02-09 15:03:00,
2013-02-09 10:08:00,31.6,23.8,30.42,East,80,4.5,7.5,72,0.00,,,0.00,VWS V14.01,2013-02-09 15:08:00,
2013-02-09 10:13:00,31.8,24.3,30.42,ENE,78,9.0,9.0,74,0.00,,,0.00,VWS V14.01,2013-02-09 15:13:00,
2013-02-09 10:18:00,32.3,24.5,30.42,NE,46,9.0,16.5,72,0.00,,,0.00,VWS V14.01,2013-02-09 15:18:00,
2013-02-09 10:23:00,32.4,23.8,30.42,East,80,6.0,10.5,70,0.00,,,0.00,VWS V14.01,2013-02-09 15:23:00,
2013-02-09 10:28:00,32.4,23.8,30.42,East,79,9.0,10.5,70,0.00,,,0.00,VWS V14.01,2013-02-09 15:28:00,
2013-02-09 10:33:00,32.7,24.5,30.42,ENE,75,6.0,6.0,71,0.00,,,0.00,VWS V14.01,2013-02-09 15:33:00,
2013-02-09 10:38:00,33.0,24.1,30.42,ENE,70,9.0,10.5,69,0.00,,,0.00,VWS V14.01,2013-02-09 15:38:00,
2013-02-09 10:43:00,33.0,24.1,30.42,ESE,111,10.5,13.5,69,0.00,,,0.00,VWS V14.01,2013-02-09 15:43:00,
2013-02-09 10:48:00,33.4,24.8,30.42,ENE,72,12.0,12.0,70,0.00,,,0.00,VWS V14.01,2013-02-09 15:48:00,
2013-02-09 10:53:00,33.5,24.2,30.42,East,87,12.0,12.0,68,0.00,,,0.00,VWS V14.01,2013-02-09 15:53:00,
2013-02-09 10:58:00,33.6,24.3,30.43,ENE,58,10.5,10.5,68,0.00,,,0.00,VWS V14.01,2013-02-09 15:58:00,
2013-02-09 11:03:00,33.9,24.6,30.43,ESE,105,4.5,7.5,68,0.00,,,0.00,VWS V14.01,2013-02-09 16:03:00,
2013-02-09 11:08:00,34.7,24.6,30.43,SE,131,4.5,6.0,66,0.00,,,0.00,VWS V14.01,2013-02-09 16:08:00,
2013-02-09 11:13:00,34.8,24.7,30.43,ENE,67,9.0,9.0,66,0.00,,,0.00,VWS V14.01,2013-02-09 16:13:00,
2013-02-09 11:18:00,34.6,24.1,30.42,ENE,59,7.5,7.5,65,0.00,,,0.00,VWS V14.01,2013-02-09 16:18:00,
2013-02-09 11:23:00,34.6,24.5,30.42,East,96,6.0,7.5,66,0.00,,,0.00,VWS V14.01,2013-02-09 16:23:00,
2013-02-09 11:28:00,34.8,25.0,30.42,East,89,4.5,4.5,67,0.00,,,0.00,VWS V14.01,2013-02-09 16:28:00,
2013-02-09 11:33:00,35.2,24.3,30.42,NE,35,10.5,10.5,64,0.00,,,0.00,VWS V14.01,2013-02-09 16:33:00,
2013-02-09 11:38:00,35.7,25.1,30.42,East,86,7.5,7.5,65,0.00,,,0.00,VWS V14.01,2013-02-09 16:38:00,
2013-02-09 11:43:00,35.8,24.5,30.42,SE,141,6.0,6.0,63,0.00,,,0.00,VWS V14.01,2013-02-09 16:43:00,
2013-02-09 11:48:00,36.0,25.0,30.42,ESE,116,3.0,4.5,64,0.00,,,0.00,VWS V14.01,2013-02-09 16:48:00,
2013-02-09 11:53:00,36.6,25.6,30.42,ENE,67,10.5,10.5,64,0.00,,,0.00,VWS V14.01,2013-02-09 16:53:00,
2013-02-09 11:58:00,36.2,24.4,30.42,SE,140,1.5,1.5,62,0.00,,,0.00,VWS V14.01,2013-02-09 16:58:00,
2013-02-09 12:03:00,36.5,24.7,30.41,ENE,61,6.0,6.0,62,0.00,,,0.00,VWS V14.01,2013-02-09 17:03:00,
2013-02-09 12:08:00,37.0,25.2,30.42,NE,50,9.0,12.0,62,0.00,,,0.00,VWS V14.01,2013-02-09 17:08:00,
2013-02-09 12:13:00,36.6,24.8,30.41,ENE,58,6.0,6.0,62,0.00,,,0.00,VWS V14.01,2013-02-09 17:13:00,
2013-02-09 12:18:00,36.7,24.9,30.41,ENE,69,6.0,12.0,62,0.00,,,0.00,VWS V14.01,2013-02-09 17:18:00,
2013-02-09 12:23:00,37.2,25.4,30.41,East,90,3.0,3.0,62,0.00,,,0.00,VWS V14.01,2013-02-09 17:23:00,
2013-02-09 12:28:00,37.7,25.0,30.41,ESE,113,10.5,12.0,60,0.00,,,0.00,VWS V14.01,2013-02-09 17:28:00,
2013-02-09 12:33:00,37.6,24.9,30.41,SE,127,7.5,10.5,60,0.00,,,0.00,VWS V14.01,2013-02-09 17:33:00,
2013-02-09 12:38:00,38.1,25.4,30.40,ENE,77,3.0,6.0,60,0.00,,,0.00,VWS V14.01,2013-02-09 17:38:00,
2013-02-09 12:43:00,38.4,25.7,30.40,East,89,7.5,9.0,60,0.00,,,0.00,VWS V14.01,2013-02-09 17:43:00,
2013-02-09 12:48:00,38.6,25.4,30.40,ENE,72,10.5,13.5,59,0.00,,,0.00,VWS V14.01,2013-02-09 17:48:00,
2013-02-09 12:53:00,38.5,25.8,30.40,WSW,240,3.0,3.0,60,0.00,,,0.00,VWS V14.01,2013-02-09 17:53:00,
2013-02-09 12:58:00,39.1,25.5,30.39,East,89,4.5,9.0,58,0.00,,,0.00,VWS V14.01,2013-02-09 17:58:00,
2013-02-09 13:03:00,39.7,25.1,30.39,ESE,119,4.5,6.0,56,0.00,,,0.00,VWS V14.01,2013-02-09 18:03:00,
2013-02-09 13:08:00,39.6,25.1,30.39,East,97,4.5,6.0,56,0.00,,,0.00,VWS V14.01,2013-02-09 18:08:00,
2013-02-09 13:13:00,40.0,25.0,30.39,SSE,153,6.0,9.0,55,0.00,,,0.00,VWS V14.01,2013-02-09 18:13:00,
2013-02-09 13:18:00,39.8,24.8,30.39,SE,127,3.0,4.5,55,0.00,,,0.00,VWS V14.01,2013-02-09 18:18:00,
2013-02-09 13:23:00,40.1,25.1,30.39,ESE,110,6.0,7.5,55,0.00,,,0.00,VWS V14.01,2013-02-09 18:23:00,
2013-02-09 13:28:00,39.7,24.2,30.39,ENE,63,10.5,10.5,54,0.00,,,0.00,VWS V14.01,2013-02-09 18:28:00,
2013-02-09 13:33:00,39.6,25.1,30.39,NNE,25,3.0,7.5,56,0.00,,,0.00,VWS V14.01,2013-02-09 18:33:00,
2013-02-09 13:38:00,40.2,24.2,30.38,East,82,6.0,10.5,52,0.00,,,0.00,VWS V14.01,2013-02-09 18:38:00,
2013-02-09 13:43:00,40.1,25.1,30.38,ENE,75,6.0,10.5,55,0.00,,,0.00,VWS V14.01,2013-02-09 18:43:00,
2013-02-09 13:48:00,40.4,24.4,30.38,ENE,70,3.0,4.5,52,0.00,,,0.00,VWS V14.01,2013-02-09 18:48:00,
2013-02-09 13:53:00,40.7,25.2,30.37,ENE,75,7.5,9.0,54,0.00,,,0.00,VWS V14.01,2013-02-09 18:53:00,
2013-02-09 13:58:00,40.8,25.7,30.37,NNE,22,6.0,6.0,55,0.00,,,0.00,VWS V14.01,2013-02-09 18:58:00,
2013-02-09 14:03:00,41.0,23.5,30.36,ENE,67,4.5,12.0,49,0.00,,,0.00,VWS V14.01,2013-02-09 19:03:00,
2013-02-09 14:08:00,41.1,23.6,30.36,ENE,78,7.5,10.5,49,0.00,,,0.00,VWS V14.01,2013-02-09 19:08:00,
2013-02-09 14:13:00,41.0,24.0,30.35,East,90,4.5,6.0,50,0.00,,,0.00,VWS V14.01,2013-02-09 19:13:00,
2013-02-09 14:17:00,41.4,25.3,30.35,ENE,59,6.0,10.5,52,0.00,,,0.00,VWS V14.01,2013-02-09 19:17:00,
2013-02-09 14:22:00,41.5,24.0,30.35,ESE,113,3.0,6.0,49,0.00,,,0.00,VWS V14.01,2013-02-09 19:22:00,
2013-02-09 14:27:00,41.9,24.8,30.34,NE,50,9.0,10.5,50,0.00,,,0.00,VWS V14.01,2013-02-09 19:27:00,
2013-02-09 14:32:00,42.1,25.5,30.34,ENE,73,7.5,10.5,51,0.00,,,0.00,VWS V14.01,2013-02-09 19:32:00,
2013-02-09 14:37:00,42.3,25.2,30.34,SSE,161,3.0,4.5,50,0.00,,,0.00,VWS V14.01,2013-02-09 19:37:00,
2013-02-09 14:42:00,42.9,25.8,30.33,ENE,60,9.0,12.0,50,0.00,,,0.00,VWS V14.01,2013-02-09 19:42:00,
2013-02-09 14:47:00,42.6,23.4,30.34,ESE,108,7.5,10.5,46,0.00,,,0.00,VWS V14.01,2013-02-09 19:47:00,
2013-02-09 14:52:00,42.7,24.0,30.33,South,186,4.5,13.5,47,0.00,,,0.00,VWS V14.01,2013-02-09 19:52:00,
2013-02-09 14:57:00,43.0,24.8,30.33,SSE,153,6.0,6.0,48,0.00,,,0.00,VWS V14.01,2013-02-09 19:57:00,
2013-02-09 15:02:00,43.8,26.1,30.33,ENE,64,4.5,7.5,49,0.00,,,0.00,VWS V14.01,2013-02-09 20:02:00,
2013-02-09 15:07:00,43.9,23.5,30.33,SE,125,9.0,12.0,44,0.00,,,0.00,VWS V14.01,2013-02-09 20:07:00,
2013-02-09 15:12:00,43.7,23.9,30.33,ENE,70,9.0,13.5,45,0.00,,,0.00,VWS V14.01,2013-02-09 20:12:00,
2013-02-09 15:17:00,43.6,24.3,30.33,ENE,58,3.0,7.5,46,0.00,,,0.00,VWS V14.01,2013-02-09 20:17:00,
2013-02-09 15:22:00,44.3,23.8,30.33,ENE,77,6.0,9.0,44,0.00,,,0.00,VWS V14.01,2013-02-09 20:22:00,
2013-02-09 15:27:00,44.4,24.5,30.33,ENE,66,6.0,10.5,45,0.00,,,0.00,VWS V14.01,2013-02-09 20:27:00,
2013-02-09 15:32:00,44.8,25.4,30.32,ENE,70,6.0,7.5,46,0.00,,,0.00,VWS V14.01,2013-02-09 20:32:00,
2013-02-09 15:37:00,44.2,24.9,30.32,ENE,72,7.5,7.5,46,0.00,,,0.00,VWS V14.01,2013-02-09 20:37:00,
2013-02-09 15:42:00,43.9,24.0,30.32,East,92,4.5,9.0,45,0.00,,,0.00,VWS V14.01,2013-02-09 20:42:00,
2013-02-09 15:47:00,44.0,24.1,30.32,East,87,12.0,12.0,45,0.00,,,0.00,VWS V14.01,2013-02-09 20:47:00,
2013-02-09 15:52:00,44.0,24.7,30.32,East,98,6.0,9.0,46,0.00,,,0.00,VWS V14.01,2013-02-09 20:52:00,
2013-02-09 15:57:00,44.2,23.7,30.32,ESE,120,12.0,12.0,44,0.00,,,0.00,VWS V14.01,2013-02-09 20:57:00,
2013-02-09 16:02:00,44.1,24.2,30.32,ENE,77,6.0,6.0,45,0.00,,,0.00,VWS V14.01,2013-02-09 21:02:00,
2013-02-09 16:07:00,44.3,24.4,30.32,East,98,4.5,7.5,45,0.00,,,0.00,VWS V14.01,2013-02-09 21:07:00,
2013-02-09 16:12:00,44.2,24.3,30.32,ENE,66,6.0,9.0,45,0.00,,,0.00,VWS V14.01,2013-02-09 21:12:00,
2013-02-09 16:18:00,44.1,23.6,30.32,SSE,147,9.0,9.0,44,0.00,,,0.00,VWS V14.01,2013-02-09 21:18:00,
2013-02-09 16:23:00,44.2,23.2,30.32,East,80,7.5,12.0,43,0.00,,,0.00,VWS V14.01,2013-02-09 21:23:00,
2013-02-09 16:27:00,44.2,23.2,30.32,East,98,4.5,9.0,43,0.00,,,0.00,VWS V14.01,2013-02-09 21:27:00,
2013-02-09 16:32:00,44.2,23.2,30.32,ESE,120,9.0,9.0,43,0.00,,,0.00,VWS V14.01,2013-02-09 21:32:00,
2013-02-09 16:37:00,44.0,24.1,30.32,ENE,77,7.5,9.0,45,0.00,,,0.00,VWS V14.01,2013-02-09 21:37:00,
2013-02-09 16:42:00,44.0,23.6,30.31,SE,136,9.0,12.0,44,0.00,,,0.00,VWS V14.01,2013-02-09 21:42:00,
2013-02-09 16:47:00,44.2,23.7,30.31,ESE,108,6.0,6.0,44,0.00,,,0.00,VWS V14.01,2013-02-09 21:47:00,
2013-02-09 16:52:00,44.0,23.6,30.31,ESE,108,7.5,10.5,44,0.00,,,0.00,VWS V14.01,2013-02-09 21:52:00,
2013-02-09 16:57:00,43.8,23.9,30.31,NNE,32,6.0,6.0,45,0.00,,,0.00,VWS V14.01,2013-02-09 21:57:00,
2013-02-09 17:02:00,43.8,23.4,30.31,ESE,108,3.0,4.5,44,0.00,,,0.00,VWS V14.01,2013-02-09 22:02:00,
2013-02-09 17:07:00,43.8,23.9,30.31,SE,124,9.0,9.0,45,0.00,,,0.00,VWS V14.01,2013-02-09 22:07:00,
2013-02-09 17:12:00,43.8,23.9,30.31,ENE,60,4.5,6.0,45,0.00,,,0.00,VWS V14.01,2013-02-09 22:12:00,
2013-02-09 17:17:00,43.5,23.7,30.31,SSE,153,6.0,7.5,45,0.00,,,0.00,VWS V14.01,2013-02-09 22:17:00,
2013-02-09 17:22:00,43.3,24.0,30.31,SE,146,4.5,6.0,46,0.00,,,0.00,VWS V14.01,2013-02-09 22:22:00,
2013-02-09 17:27:00,43.2,23.9,30.31,ENE,77,6.0,9.0,46,0.00,,,0.00,VWS V14.01,2013-02-09 22:27:00,
2013-02-09 17:32:00,42.9,23.7,30.30,ENE,66,4.5,4.5,46,0.00,,,0.00,VWS V14.01,2013-02-09 22:32:00,
2013-02-09 17:37:00,42.5,23.8,30.30,ENE,72,6.0,9.0,47,0.00,,,0.00,VWS V14.01,2013-02-09 22:37:00,
2013-02-09 17:42:00,42.2,23.6,30.30,ESE,117,6.0,7.5,47,0.00,,,0.00,VWS V14.01,2013-02-09 22:42:00,
2013-02-09 17:47:00,41.8,23.7,30.30,ENE,74,3.0,3.0,48,0.00,,,0.00,VWS V14.01,2013-02-09 22:47:00,
2013-02-09 17:52:00,41.4,24.4,30.30,ENE,73,3.0,6.0,50,0.00,,,0.00,VWS V14.01,2013-02-09 22:52:00,
2013-02-09 17:57:00,41.0,24.5,30.30,East,86,3.0,4.5,51,0.00,,,0.00,VWS V14.01,2013-02-09 22:57:00,
2013-02-09 18:02:00,40.7,24.2,30.30,ENE,74,1.5,3.0,51,0.00,,,0.00,VWS V14.01,2013-02-09 23:02:00,
2013-02-09 18:07:00,40.2,24.2,30.30,East,91,1.5,3.0,52,0.00,,,0.00,VWS V14.01,2013-02-09 23:07:00,
2013-02-09 18:12:00,39.9,24.4,30.30,ESE,104,3.0,6.0,54,0.00,,,0.00,VWS V14.01,2013-02-09 23:12:00,
2013-02-09 18:17:00,39.6,24.6,30.30,East,84,4.5,4.5,55,0.00,,,0.00,VWS V14.01,2013-02-09 23:17:00,
2013-02-09 18:22:00,39.4,24.4,30.30,East,84,3.0,4.5,55,0.00,,,0.00,VWS V14.01,2013-02-09 23:22:00,
2013-02-09 18:27:00,39.2,24.7,30.30,East,88,4.5,4.5,56,0.00,,,0.00,VWS V14.01,2013-02-09 23:27:00,
2013-02-09 18:32:00,39.0,24.5,30.30,East,97,3.0,3.0,56,0.00,,,0.00,VWS V14.01,2013-02-09 23:32:00,
2013-02-09 18:37:00,38.7,24.2,30.29,East,97,4.5,4.5,56,0.00,,,0.00,VWS V14.01,2013-02-09 23:37:00,
2013-02-09 18:42:00,38.5,24.5,30.29,East,97,4.5,4.5,57,0.00,,,0.00,VWS V14.01,2013-02-09 23:42:00,
2013-02-09 18:47:00,38.4,24.4,30.29,ENE,77,3.0,6.0,57,0.00,,,0.00,VWS V14.01,2013-02-09 23:47:00,
2013-02-09 18:52:00,38.2,24.6,30.29,East,91,3.0,4.5,58,0.00,,,0.00,VWS V14.01,2013-02-09 23:52:00,
2013-02-09 18:57:00,38.0,24.5,30.29,East,90,3.0,3.0,58,0.00,,,0.00,VWS V14.01,2013-02-09 23:57:00,
2013-02-09 19:02:00,37.8,24.7,30.29,East,91,3.0,4.5,59,0.00,,,0.00,VWS V14.01,2013-02-10 00:02:00,
2013-02-09 19:07:00,37.5,24.4,30.29,East,91,3.0,3.0,59,0.00,,,0.00,VWS V14.01,2013-02-10 00:07:00,
2013-02-09 19:12:00,37.1,24.5,30.29,East,91,1.5,1.5,60,0.00,,,0.00,VWS V14.01,2013-02-10 00:12:00,
2013-02-09 19:17:00,36.8,24.6,30.29,East,91,1.5,3.0,61,0.00,,,0.00,VWS V14.01,2013-02-10 00:17:00,
2013-02-09 19:22:00,36.6,24.4,30.28,East,101,1.5,1.5,61,0.00,,,0.00,VWS V14.01,2013-02-10 00:22:00,
2013-02-09 19:27:00,36.3,24.1,30.29,East,101,1.5,1.5,61,0.00,,,0.00,VWS V14.01,2013-02-10 00:27:00,
2013-02-09 19:32:00,36.2,24.0,30.28,East,79,3.0,3.0,61,0.00,,,0.00,VWS V14.01,2013-02-10 00:32:00,
2013-02-09 19:37:00,36.0,24.2,30.28,East,79,1.5,1.5,62,0.00,,,0.00,VWS V14.01,2013-02-10 00:37:00,
2013-02-09 19:42:00,35.9,24.1,30.27,East,79,1.5,1.5,62,0.00,,,0.00,VWS V14.01,2013-02-10 00:42:00,
2013-02-09 19:47:00,35.8,24.0,30.27,East,79,1.5,1.5,62,0.00,,,0.00,VWS V14.01,2013-02-10 00:47:00,
2013-02-09 19:52:00,35.5,24.2,30.27,East,80,1.5,3.0,63,0.00,,,0.00,VWS V14.01,2013-02-10 00:52:00,
2013-02-09 19:57:00,35.6,24.3,30.27,ESE,108,6.0,6.0,63,0.00,,,0.00,VWS V14.01,2013-02-10 00:57:00,
2013-02-09 20:02:00,35.6,24.3,30.27,ENE,70,4.5,4.5,63,0.00,,,0.00,VWS V14.01,2013-02-10 01:02:00,
2013-02-09 20:07:00,35.6,24.3,30.27,ESE,108,4.5,4.5,63,0.00,,,0.00,VWS V14.01,2013-02-10 01:07:00,
2013-02-09 20:12:00,35.7,24.4,30.27,ENE,76,4.5,6.0,63,0.00,,,0.00,VWS V14.01,2013-02-10 01:12:00,
2013-02-09 20:17:00,35.8,24.0,30.27,East,96,1.5,3.0,62,0.00,,,0.00,VWS V14.01,2013-02-10 01:17:00,
2013-02-09 20:22:00,35.7,24.0,30.27,East,86,1.5,4.5,62,0.00,,,0.00,VWS V14.01,2013-02-10 01:22:00,
2013-02-09 20:27:00,35.7,24.4,30.26,East,99,4.5,4.5,63,0.00,,,0.00,VWS V14.01,2013-02-10 01:27:00,
2013-02-09 20:32:00,35.7,24.0,30.26,East,89,6.0,7.5,62,0.00,,,0.00,VWS V14.01,2013-02-10 01:32:00,
2013-02-09 20:37:00,35.6,23.9,30.26,ENE,74,4.5,6.0,62,0.00,,,0.00,VWS V14.01,2013-02-10 01:37:00,
2013-02-09 20:42:00,35.6,23.9,30.26,ESE,103,4.5,6.0,62,0.00,,,0.00,VWS V14.01,2013-02-10 01:42:00,
2013-02-09 20:47:00,35.5,23.8,30.26,ESE,108,1.5,3.0,62,0.00,,,0.00,VWS V14.01,2013-02-10 01:47:00,
2013-02-09 20:52:00,35.1,23.8,30.26,ESE,120,1.5,3.0,63,0.00,,,0.00,VWS V14.01,2013-02-10 01:52:00,
2013-02-09 20:57:00,35.0,23.7,30.26,SE,124,6.0,6.0,63,0.00,,,0.00,VWS V14.01,2013-02-10 01:57:00,
2013-02-09 21:02:00,35.2,23.9,30.26,East,82,4.5,7.5,63,0.00,,,0.00,VWS V14.01,2013-02-10 02:02:00,
2013-02-09 21:07:00,35.4,23.7,30.25,NE,54,6.0,10.5,62,0.00,,,0.00,VWS V14.01,2013-02-10 02:07:00,
2013-02-09 21:12:00,35.7,24.0,30.25,ENE,76,4.5,6.0,62,0.00,,,0.00,VWS V14.01,2013-02-10 02:12:00,
2013-02-09 21:17:00,35.6,23.9,30.25,East,101,3.0,6.0,62,0.00,,,0.00,VWS V14.01,2013-02-10 02:17:00,
2013-02-09 21:22:00,35.6,23.5,30.25,SE,124,3.0,6.0,61,0.00,,,0.00,VWS V14.01,2013-02-10 02:22:00,
2013-02-09 21:27:00,35.5,23.4,30.25,ESE,123,6.0,6.0,61,0.00,,,0.00,VWS V14.01,2013-02-10 02:27:00,
2013-02-09 21:32:00,35.3,23.6,30.25,ESE,105,4.5,4.5,62,0.00,,,0.00,VWS V14.01,2013-02-10 02:32:00,
2013-02-09 21:37:00,35.1,23.8,30.25,SE,124,3.0,4.5,63,0.00,,,0.00,VWS V14.01,2013-02-10 02:37:00,
2013-02-09 21:42:00,34.9,23.6,30.25,East,99,1.5,4.5,63,0.00,,,0.00,VWS V14.01,2013-02-10 02:42:00,
2013-02-09 21:47:00,34.7,23.4,30.25,East,85,3.0,3.0,63,0.00,,,0.00,VWS V14.01,2013-02-10 02:47:00,
2013-02-09 21:52:00,34.6,23.3,30.25,East,97,4.5,6.0,63,0.00,,,0.00,VWS V14.01,2013-02-10 02:52:00,
2013-02-09 21:57:00,34.6,23.3,30.25,ENE,72,3.0,6.0,63,0.00,,,0.00,VWS V14.01,2013-02-10 02:57:00,
2013-02-09 22:02:00,34.6,23.3,30.25,SE,131,4.5,4.5,63,0.00,,,0.00,VWS V14.01,2013-02-10 03:02:00,
2013-02-09 22:07:00,34.6,23.3,30.25,ESE,105,4.5,4.5,63,0.00,,,0.00,VWS V14.01,2013-02-10 03:07:00,
2013-02-09 22:12:00,34.6,23.3,30.25,ESE,113,3.0,4.5,63,0.00,,,0.00,VWS V14.01,2013-02-10 03:12:00,
2013-02-09 22:17:00,34.8,23.5,30.25,ENE,71,3.0,3.0,63,0.00,,,0.00,VWS V14.01,2013-02-10 03:17:00,
2013-02-09 22:22:00,34.7,23.4,30.25,East,79,1.5,1.5,63,0.00,,,0.00,VWS V14.01,2013-02-10 03:22:00,
2013-02-09 22:27:00,34.7,23.0,30.25,East,79,4.5,6.0,62,0.00,,,0.00,VWS V14.01,2013-02-10 03:27:00,
2013-02-09 22:32:00,34.9,23.2,30.24,East,91,3.0,6.0,62,0.00,,,0.00,VWS V14.01,2013-02-10 03:32:00,
2013-02-09 22:37:00,35.0,23.3,30.24,East,98,4.5,4.5,62,0.00,,,0.00,VWS V14.01,2013-02-10 03:37:00,
2013-02-09 22:42:00,35.0,23.3,30.24,East,84,3.0,3.0,62,0.00,,,0.00,VWS V14.01,2013-02-10 03:42:00,
2013-02-09 22:47:00,35.1,23.0,30.24,East,88,3.0,4.5,61,0.00,,,0.00,VWS V14.01,2013-02-10 03:47:00,
2013-02-09 22:52:00,35.2,23.1,30.24,East,84,3.0,3.0,61,0.00,,,0.00,VWS V14.01,2013-02-10 03:52:00,
2013-02-09 22:57:00,35.2,23.1,30.24,East,79,4.5,4.5,61,0.00,,,0.00,VWS V14.01,2013-02-10 03:57:00,
2013-02-09 23:02:00,35.0,23.3,30.24,East,82,4.5,4.5,62,0.00,,,0.00,VWS V14.01,2013-02-10 04:02:00,
2013-02-09 23:07:00,34.9,23.2,30.23,ESE,104,4.5,6.0,62,0.00,,,0.00,VWS V14.01,2013-02-10 04:07:00,
2013-02-09 23:12:00,34.9,23.2,30.23,East,86,4.5,4.5,62,0.00,,,0.00,VWS V14.01,2013-02-10 04:12:00,
2013-02-09 23:17:00,34.8,23.1,30.23,East,96,9.0,9.0,62,0.00,,,0.00,VWS V14.01,2013-02-10 04:17:00,
2013-02-09 23:22:00,34.9,23.2,30.24,ESE,106,4.5,6.0,62,0.00,,,0.00,VWS V14.01,2013-02-10 04:22:00,
2013-02-09 23:27:00,34.8,23.1,30.23,East,99,7.5,9.0,62,0.00,,,0.00,VWS V14.01,2013-02-10 04:27:00,
2013-02-09 23:32:00,34.7,23.0,30.23,ESE,108,3.0,6.0,62,0.00,,,0.00,VWS V14.01,2013-02-10 04:32:00,
2013-02-09 23:37:00,34.6,22.9,30.23,East,86,6.0,7.5,62,0.00,,,0.00,VWS V14.01,2013-02-10 04:37:00,
2013-02-09 23:42:00,34.5,23.2,30.23,East,82,4.5,7.5,63,0.00,,,0.00,VWS V14.01,2013-02-10 04:42:00,
2013-02-09 23:47:00,34.4,23.1,30.23,ENE,77,4.5,10.5,63,0.00,,,0.00,VWS V14.01,2013-02-10 04:47:00,
2013-02-09 23:52:00,34.4,23.1,30.23,ESE,121,4.5,6.0,63,0.00,,,0.00,VWS V14.01,2013-02-10 04:52:00,
2013-02-09 23:57:00,34.4,23.1,30.23,ENE,69,4.5,4.5,63,0.00,,,0.00,VWS V14.01,2013-02-10 04:57:00,